Orbital Elements at Epoch 2459000.5 (2020-May-31.0) TDB
Reference: JPL 18 (heliocentric ecliptic J2000)
Element | Value | Uncertainty (1-sigma) | Units |
e | .1537023166014921 | 5.089e-08 | |
a | 3.098075656289983 | 2.5097e-08 | au |
q | 2.621894250911525 | 1.6241e-07 | au |
i | 17.13415892148074 | 5.1609e-06 | deg |
node | 215.4257188264018 | 1.6821e-05 | deg |
peri | 27.96525914686923 | 2.2723e-05 | deg |
M | 6.831587247499129 | 1.3494e-05 | deg |
tp | 2458962.703152876381 (2020-Apr-23.20315288) | 7.4757e-05 | TDB |
period | 1991.757474733833 5.45 | 2.4202e-05 6.626e-08 | d yr |
n | .1807448971909134 | 2.1963e-09 | deg/d |
Q | 3.574257061668441 | 2.8954e-08 | au |
|
| | Orbit Determination Parameters
Additional Information
|